Regional Weather Roundup
Issued by NWS Little Rock, AR

Home | Current Version | Previous Version | Graphics & Text | Print | Product List | Glossary On
Versions: 1 2 3 4 5 6 7 8 9 10 11 12 13 14 15 16 17 18 19 20 21 22 23 24 25 26 27 28 29 30 31 32 33 34 35 36 37 38 39 40 41 42 43 44 45 46 47 48 49 50
000
ASUS44 KLZK 230605
RWRLZK

WEATHER ROUNDUP FOR ARKANSAS
NATIONAL WEATHER SERVICE LITTLE ROCK AR
100 AM CDT SAT AUG 23 2014

NOTE: "FAIR" INDICATES FEW OR NO CLOUDS BELOW 12,000 FEET WITH NO
SIGNIFICANT WEATHER AND/OR OBSTRUCTIONS TO VISIBILITY.

ARZ001-003-010-029-230700-
NORTHWEST ARKANSAS

CITY           SKY/WX    TMP DP  RH WIND       PRES   REMARKS
FAYETTEVILLE   FAIR      76  73  91 S3        30.02S
6HR MIN TEMP:  76; 6HR MAX TEMP:  89;

FORT SMITH     FAIR      80  74  81 E5        29.97S HX  85
6HR MIN TEMP:  80; 6HR MAX TEMP:  93;

HARRISON       FAIR      78  74  87 S5        30.03R
6HR MIN TEMP:  75; 6HR MAX TEMP:  87;

BENTONVILLE    FAIR      79  72  78 CALM      30.02R
6HR MIN TEMP:  79; 6HR MAX TEMP:  91;

ROGERS         FAIR      80  72  76 S7        30.03R
6HR MIN TEMP:  80; 6HR MAX TEMP:  91;

SILOAM SPGS    FAIR      79  68  69 S8        30.02S
6HR MIN TEMP:  79; 6HR MAX TEMP:  90;

HIGHFILL       FAIR      77  72  84 S7        30.01S
6HR MIN TEMP:  77; 6HR MAX TEMP:  90;

$$

ARZ004-005-016-230700-
NORTH CENTRAL ARKANSAS

CITY           SKY/WX    TMP DP  RH WIND       PRES   REMARKS
BATESVILLE     FAIR      82  75  78 SW8       29.98S HX  89
6HR MIN TEMP:  82; 6HR MAX TEMP:  93;

FLIPPIN        FAIR      81  70  69 CALM      29.99S
6HR MIN TEMP:  81; 6HR MAX TEMP:  93;

MTN HOME       FAIR      79  72  79 CALM      29.99S
6HR MIN TEMP:  79; 6HR MAX TEMP:  91;

$$

ARZ040-041-230700-
WEST CENTRAL ARKANSAS

CITY           SKY/WX    TMP DP  RH WIND       PRES   REMARKS
MENA           FAIR      82  73  74 CALM      30.03S HX  88
MOUNT IDA      FAIR      75  73  93 CALM      29.99S FOG
6HR MIN TEMP:  74; 6HR MAX TEMP:  87;

$$

ARZ009-017-025-026-028-230700-
NORTHEAST ARKANSAS

CITY           SKY/WX    TMP DP  RH WIND       PRES   REMARKS
CORNING        FAIR      79  75  89 SW8       29.97S
JONESBORO      FAIR      81  74  79 SW7       29.97F HX  86
6HR MIN TEMP:  80; 6HR MAX TEMP:  90;

NEWPORT        FAIR      79  76  90 S5        29.98F
6HR MIN TEMP:  79; 6HR MAX TEMP:  90;

WALNUT RIDGE   FAIR      79  73  83 S8        29.96F
6HR MIN TEMP:  79; 6HR MAX TEMP:  90;

BLYTHEVILLE    FAIR      78  76  93 S5        29.98F
6HR MIN TEMP:  78; 6HR MAX TEMP:  88;

$$

ARZ022-023-033-042-044-230700-
CENTRAL ARKANSAS

CITY           SKY/WX    TMP DP  RH WIND       PRES   REMARKS
LITTLE ROCK    FAIR      80  75  84 CALM      29.99S HX  85
6HR MIN TEMP:  80; 6HR MAX TEMP:  89;

N LITTLE ROCK    N/A     82  75  81 SW5       29.99S HX  88
6HR MIN TEMP:  82; 6HR MAX TEMP:  89;

JACKSONVILLE   FAIR      80  76  88 CALM      29.99S HX  86
6HR MIN TEMP:  80; 6HR MAX TEMP:  89;

SEARCY           N/A     80  77  91 CALM        N/A  HX  85
6HR MIN TEMP:  79; 6HR MAX TEMP:  89;

HOT SPRINGS    FAIR      80  74  81 CALM      30.01S HX  85
6HR MIN TEMP:  80; 6HR MAX TEMP:  89; 6HR PCP: TRACE;

RUSSELLVILLE   FAIR      77  74  90 CALM      29.99S
6HR MIN TEMP:  77; 6HR MAX TEMP:  86;

CLINTON        FAIR      75  73  94 CALM      30.00F
$$

ARZ036-230700-
EAST ARKANSAS

CITY           SKY/WX    TMP DP  RH WIND       PRES   REMARKS
WEST MEMPHIS   FAIR      78  76  93 S5        29.98F
6HR MIN TEMP:  78; 6HR MAX TEMP:  88;

$$

ARZ050-053-066-070-073-230700-
SOUTHWEST ARKANSAS

CITY           SKY/WX    TMP DP  RH WIND       PRES   REMARKS
ARKADELPHIA    FAIR      77  77 100 CALM      30.00R FOG
6HR MIN TEMP:  77; 6HR MAX TEMP:  90;

CAMDEN         FAIR      77  72  83 SW3       29.99S
TEXARKANA      FAIR      79  72  79 SW6       29.99S
6HR MIN TEMP:  79; 6HR MAX TEMP:  92;

EL DORADO      FAIR      76  73  91 S3        30.00F
6HR MIN TEMP:  76; 6HR MAX TEMP:  89;

DE QUEEN       FAIR      75  73  93 N3        29.97R FOG
6HR MIN TEMP:  75; 6HR MAX TEMP:  91;

$$

ARZ056-057-069-230700-
SOUTHEAST ARKANSAS

CITY           SKY/WX    TMP DP  RH WIND       PRES   REMARKS
PINE BLUFF     FAIR      76  74  93 CALM      30.00S
6HR MIN TEMP:  75; 6HR MAX TEMP:  89;

STUTTGART      FAIR      81  73  78 S6        30.00S HX  85
6HR MIN TEMP:  81; 6HR MAX TEMP:  90;

MONTICELLO     FAIR      81  71  71 SW6       30.00S HX  85
6HR MIN TEMP:  81; 6HR MAX TEMP:  90;


$$




USA.gov is the U.S. government's official web portal to all federal, state and local government web resources and services.